When you browse on this site, cookies collect data to enhance your experience and personalize the content and advertising you see.
Visit our Privacy Policy to learn more. By continuing to use the site, you agree to this use of cookies and data.
  • In Slovakia
  • List of Countries
  • For 7 days
  • Water Temperature
  • Satellite Maps
  • Weather Map
  • Weather Widgets
  • user-avatar
    Login

    Hourly Weather Melbourne

    Today, 19 December, Wednesday

    Time Temperature Precipitation Wind Pressure Humidity
    00:00 +18°C° 0 mm 1 mps 759 mmHg 89%
    01:00 +18°C° 0 mm 1 mps 758 mmHg 90%
    02:00 +16°C° 0 mm 1 mps 758 mmHg 91%
    03:00 +16°C° 0 mm 1 mps 758 mmHg 92%
    04:00 +18°C° 0 mm 1 mps 757 mmHg 93%
    05:00 +19°C° 0 mm 1 mps 757 mmHg 88%
    06:00 +18°C° 0 mm 0 mps 757 mmHg 84%
    07:00 +19°C° 0 mm 0 mps 758 mmHg 79%
    08:00 +21°C° 0 mm 0 mps 757 mmHg 69%
    09:00 +23°C° 0 mm 0 mps 757 mmHg 60%
    10:00 +26°C° 0 mm 1 mps 757 mmHg 58%
    11:00 +27°C° 0 mm 1 mps 757 mmHg 53%
    12:00 +29°C° 0 mm 1 mps 757 mmHg 47%
    13:00 +30°C° 0 mm 1 mps 756 mmHg 41%
    14:00 +30°C° 0 mm 1 mps 756 mmHg 43%
    15:00 +29°C° 0 mm 1 mps 755 mmHg 45%
    16:00 +27°C° 0 mm 1 mps 755 mmHg 56%
    17:00 +26°C° 0 mm 1 mps 755 mmHg 59%
    18:00 +26°C° 0 mm 1 mps 755 mmHg 63%
    19:00 +25°C° 0 mm 1 mps 756 mmHg 67%
    20:00 +24°C° 0 mm 1 mps 755 mmHg 69%
    21:00 +23°C° 0 mm 1 mps 755 mmHg 72%
    22:00 +22°C° 0 mm 1 mps 755 mmHg 74%
    23:00 +22°C° 0 mm 1 mps 755 mmHg 76%

    Tomorrow, 20 December, Thursday

    Time Temperature Precipitation Wind Pressure Humidity
    00:00 +19°C° 0 mm 0 mps 755 mmHg 77%
    01:00 +19°C° 0 mm 0 mps 754 mmHg 79%
    02:00 +20°C° 0 mm 1 mps 754 mmHg 81%
    03:00 +20°C° 0 mm 1 mps 754 mmHg 83%
    04:00 +20°C° 0 mm 1 mps 754 mmHg 85%
    05:00 +21°C° 0 mm 1 mps 754 mmHg 81%
    06:00 +21°C° 0 mm 2 mps 754 mmHg 77%
    07:00 +23°C° 0 mm 2 mps 755 mmHg 72%
    08:00 +24°C° 0 mm 3 mps 755 mmHg 68%
    09:00 +25°C° 0 mm 3 mps 755 mmHg 63%
    10:00 +26°C° 0 mm 4 mps 755 mmHg 59%
    11:00 +26°C° 0 mm 5 mps 755 mmHg 59%
    12:00 +26°C° 0 mm 5 mps 754 mmHg 59%
    13:00 +26°C° 0 mm 5 mps 754 mmHg 59%
    14:00 +25°C° 0 mm 5 mps 754 mmHg 59%
    15:00 +24°C° 0 mm 6 mps 754 mmHg 59%
    16:00 +23°C° 0 mm 6 mps 754 mmHg 59%
    17:00 +22°C° 0 mm 6 mps 754 mmHg 64%
    18:00 +20°C° 0 mm 5 mps 755 mmHg 69%
    19:00 +19°C° 0 mm 5 mps 755 mmHg 75%
    20:00 +17°C° 0 mm 5 mps 755 mmHg 76%
    21:00 +17°C° 0 mm 4 mps 756 mmHg 78%
    22:00 +17°C° 0 mm 4 mps 756 mmHg 79%
    23:00 +16°C° 0 mm 3 mps 756 mmHg 81%

    Day after tomorrow, 21 December, Friday

    Time Temperature Precipitation Wind Pressure Humidity
    00:00 +16°C° 0 mm 3 mps 756 mmHg 83%
    01:00 +16°C° 0 mm 3 mps 756 mmHg 84%
    02:00 +14°C° 0 mm 3 mps 756 mmHg 86%
    03:00 +14°C° 0 mm 3 mps 756 mmHg 87%
    04:00 +14°C° 0 mm 3 mps 755 mmHg 89%
    05:00 +14°C° 0 mm 3 mps 755 mmHg 87%
    06:00 +16°C° 0 mm 3 mps 756 mmHg 86%
    07:00 +16°C° 0 mm 3 mps 756 mmHg 84%
    08:00 +17°C° 0.1 mm 3 mps 756 mmHg 80%
    09:00 +18°C° 0.1 mm 3 mps 756 mmHg 76%
    10:00 +19°C° 0.1 mm 2 mps 755 mmHg 73%
    11:00 +20°C° 0.2 mm 3 mps 755 mmHg 66%
    12:00 +22°C° 0.2 mm 3 mps 755 mmHg 60%
    13:00 +23°C° 0.2 mm 4 mps 755 mmHg 54%
    14:00 +23°C° 0.4 mm 4 mps 755 mmHg 55%
    15:00 +22°C° 0.4 mm 4 mps 755 mmHg 55%
    16:00 +22°C° 0.4 mm 5 mps 755 mmHg 55%
    17:00 +21°C° 0.2 mm 5 mps 756 mmHg 59%
    18:00 +20°C° 0.2 mm 5 mps 756 mmHg 63%
    19:00 +17°C° 0.2 mm 6 mps 757 mmHg 67%
    20:00 +16°C° 0.3 mm 5 mps 758 mmHg 72%
    21:00 +15°C° 0.3 mm 4 mps 758 mmHg 77%
    22:00 +14°C° 0.3 mm 4 mps 759 mmHg 82%
    23:00 +14°C° 0.2 mm 4 mps 759 mmHg 84%

    22 December, Saturday

    Time Temperature Precipitation Wind Pressure Humidity
    00:00 +13°C° 0.2 mm 3 mps 759 mmHg 87%
    01:00 +13°C° 0.2 mm 3 mps 759 mmHg 89%
    02:00 +13°C° 0 mm 3 mps 759 mmHg 90%
    03:00 +12°C° 0 mm 3 mps 759 mmHg 91%
    04:00 +12°C° 0 mm 3 mps 759 mmHg 92%
    05:00 +13°C° 0.2 mm 3 mps 760 mmHg 89%
    06:00 +14°C° 0.2 mm 3 mps 760 mmHg 87%
    07:00 +14°C° 0.2 mm 3 mps 761 mmHg 84%
    08:00 +15°C° 0.2 mm 4 mps 761 mmHg 77%
    09:00 +17°C° 0.2 mm 4 mps 761 mmHg 70%
    10:00 +18°C° 0.2 mm 4 mps 761 mmHg 64%
    11:00 +20°C° 0 mm 4 mps 761 mmHg 58%
    12:00 +21°C° 0 mm 5 mps 761 mmHg 52%
    13:00 +22°C° 0 mm 5 mps 761 mmHg 45%
    14:00 +21°C° 0 mm 5 mps 761 mmHg 46%
    15:00 +21°C° 0 mm 5 mps 761 mmHg 47%
    16:00 +21°C° 0 mm 5 mps 761 mmHg 47%
    17:00 +20°C° 0 mm 4 mps 761 mmHg 52%
    18:00 +18°C° 0 mm 4 mps 762 mmHg 57%
    19:00 +17°C° 0 mm 4 mps 762 mmHg 62%
    20:00 +16°C° 0 mm 3 mps 763 mmHg 68%
    21:00 +14°C° 0 mm 3 mps 764 mmHg 75%
    22:00 +14°C° 0 mm 2 mps 765 mmHg 81%
    23:00 +13°C° 0 mm 2 mps 764 mmHg 84%

    23 December, Sunday

    Time Temperature Precipitation Wind Pressure Humidity
    00:00 +13°C° 0 mm 2 mps 764 mmHg 86%
    01:00 +12°C° 0 mm 1 mps 764 mmHg 89%
    02:00 +12°C° 0 mm 1 mps 764 mmHg 90%
    03:00 +12°C° 0 mm 1 mps 764 mmHg 91%
    04:00 +12°C° 0 mm 1 mps 764 mmHg 92%
    05:00 +13°C° 0 mm 1 mps 764 mmHg 85%
    06:00 +14°C° 0 mm 1 mps 765 mmHg 79%
    07:00 +16°C° 0 mm 1 mps 765 mmHg 73%
    08:00 +19°C° 0 mm 1 mps 765 mmHg 63%
    09:00 +22°C° 0 mm 1 mps 765 mmHg 53%
    10:00 +24°C° 0 mm 1 mps 765 mmHg 43%
    11:00 +25°C° 0 mm 1 mps 764 mmHg 39%
    12:00 +26°C° 0 mm 2 mps 764 mmHg 36%
    13:00 +27°C° 0 mm 2 mps 764 mmHg 33%
    14:00 +27°C° 0 mm 2 mps 763 mmHg 33%
    15:00 +27°C° 0 mm 2 mps 763 mmHg 33%
    16:00 +27°C° 0 mm 3 mps 763 mmHg 33%
    17:00 +26°C° 0 mm 3 mps 763 mmHg 39%
    18:00 +24°C° 0 mm 3 mps 763 mmHg 44%
    19:00 +22°C° 0 mm 3 mps 763 mmHg 50%
    20:00 +20°C° 0 mm 3 mps 763 mmHg 57%
    21:00 +18°C° 0 mm 2 mps 764 mmHg 63%
    22:00 +16°C° 0 mm 2 mps 764 mmHg 70%
    23:00 +16°C° 0 mm 1 mps 764 mmHg 73%

    24 December, Monday

    Time Temperature Precipitation Wind Pressure Humidity
    00:00 +15°C° 0 mm 1 mps 763 mmHg 75%
    01:00 +14°C° 0 mm 0 mps 763 mmHg 78%
    02:00 +14°C° 0 mm 0 mps 763 mmHg 76%
    03:00 +14°C° 0 mm 0 mps 763 mmHg 74%
    04:00 +14°C° 0 mm 0 mps 763 mmHg 72%
    05:00 +18°C° 0 mm 1 mps 763 mmHg 66%
    06:00 +20°C° 0 mm 1 mps 763 mmHg 60%
    07:00 +21°C° 0 mm 1 mps 763 mmHg 55%
    08:00 +24°C° 0 mm 2 mps 763 mmHg 48%
    09:00 +27°C° 0 mm 3 mps 763 mmHg 41%
    10:00 +29°C° 0 mm 3 mps 763 mmHg 34%
    11:00 +31°C° 0 mm 3 mps 762 mmHg 31%
    12:00 +33°C° 0 mm 3 mps 762 mmHg 28%
    13:00 +34°C° 0 mm 3 mps 761 mmHg 25%
    14:00 +35°C° 0 mm 3 mps 760 mmHg 24%
    15:00 +35°C° 0 mm 3 mps 760 mmHg 23%
    16:00 +36°C° 0 mm 2 mps 759 mmHg 22%
    17:00 +34°C° 0 mm 2 mps 759 mmHg 27%
    18:00 +31°C° 0 mm 2 mps 760 mmHg 32%
    19:00 +30°C° 0 mm 2 mps 760 mmHg 37%
    20:00 +27°C° 0 mm 2 mps 760 mmHg 42%
    21:00 +25°C° 0 mm 2 mps 760 mmHg 47%
    22:00 +22°C° 0 mm 3 mps 761 mmHg 52%
    23:00 +21°C° 0 mm 2 mps 761 mmHg 55%
    Show more